Location: Brachbach
(49.1847°N, 9.7240°E)
Time: 07:31:28
(UTC+00:00)

UNISAT 6 - Visible Passes

Search period start: 11 March 2026 00:00
Search period end: 21 March 2026 00:00
Orbit: 573 x 637 km, 97.8° (Epoch: 10 March)

Date Brightness Start Highest point End Pass type
(mag) Time Alt. Az. Time Alt. Az. Time Alt. Az.
14 Mar ? 01:22:23 11° NNE 01:22:23 11° NNE 01:22:40 10° NNE visible
15 Mar ? 01:35:00 13° NNE 01:35:00 13° NNE 01:35:38 10° N visible
16 Mar ? 01:47:35 16° N 01:47:35 16° N 01:48:32 10° N visible
17 Mar ? 02:00:10 18° N 02:00:10 18° N 02:01:21 10° N visible
18 Mar ? 02:12:44 20° N 02:12:44 20° N 02:14:07 10° N visible
19 Mar ? 00:48:28 10° NE 00:48:28 10° NE 00:48:34 10° NE visible
19 Mar ? 02:25:18 22° N 02:25:18 22° N 02:26:49 10° NNW visible
20 Mar ? 01:01:01 13° NE 01:01:01 13° NE 01:02:11 10° NNE visible
20 Mar ? 02:37:51 23° NNW 02:37:51 23° NNW 02:39:29 10° NNW visible
